Location: Unspecified
(51.0950°N, 12.9690°E)
Time: 17:25:16
(UTC+00:00)

USA 238 DEB - Pass Details

Date: 28 October 2021
Orbit: 978 x 1234 km, 63.4° (Epoch: 25 November)

Event Time Altitude Azimuth Distance (km) Brightness Sun altitude
Rises 18:57:37 0° 314° (NW) 3,907 7.6 -29.9°
Reaches altitude 10° 19:00:14 10° 316° (NW) 2,984 6.7 -30.3°
Enters shadow 19:07:16 71° 34° (NNE) 1,225 3.8 -31.4°
